星链-30776 (STARLINK-30776 )

导读 | 星芒AI

STARLINK-30776 是 SpaceX 星链(Starlink)卫星互联网项目中的第 30776 颗卫星。该卫星属于星链计划的第三代(Gen3)卫星群,旨在提升全球互联网覆盖和连接速度。它运行在低地球轨道,配备先进通信设备和激光链路,以实现高速、低延迟的网络服务。该卫星的发射和部署有助于扩展 Starlink 在偏远和农村地区的网络接入能力,同时增强其在全球范围内的服务稳定性与性能。

基本信息
目录编号:
58136
目录名称:
STARLINK-30776
国际标识:
2023-162U
轨道中心:
EARTH
卫星名称:
星链-30776
卫星全名:
星链-30776 (STARLINK-30776 )
卫星状态:
在轨 (已飞行789 天)
发射日期:
2023-10-22 UTC
国别 :
美国 (US)
星等 :
--
轨道信息
数据来源 国际轨道数据
星历时间: 2025-12-19T09:00:31+0800
17小时前
查看轨道信息
半长轴: 6937.224km
偏心率: 0.0000879
轨道倾角: 43.001°
近地点辐角 273.962°
升交点赤经 211.691°
平近点角 86.112°
近地点: 558.477km
远地点: 559.697km
周期: 95.838分钟
每日圈数: 15.025336
详细信息
固有亮度:
5
最大亮度:
0.3
卫星平台:
Starlink v2.0 mini
覆盖范围:
全球
运营商:
太空探索技术公司
运营商所在国:
美国
制造商(研发单位):
太空探索技术公司
制造商所在国:
美国
使用方式:
暂无
卫星简介
星链(Starlink)计划是由太空探索技术公司(SpaceX)提出的一个巨型低轨卫星互联网星座项目,计划在2019年至2024年间在太空搭建由约1.2万颗卫星组成的“星链”网络,其中1584颗将部署在地球上空550千米处的近地轨道,并从2020年开始工作。该卫星仍在工作。
2D轨道图
3D轨道图
轨道高度分析图
轨道倾角分析图
轨道综合分析图
查看轨道综合分析图